STARLINK-31958, 59924

Orbit data source: Space-Track

STARLINK-31958, 59924 is a payload satellite owned by SpaceX/Seattle (US) in LEO that was launched on Sat, 01 Jun 2024 UTC via an FALCON 9 launch vehicle from the Air Force Eastern Test Range (AFETR). Payload-class satellites include a variety of spacecraft equipped with specific instruments for various scientific and technological missions. These include communications satellites like Starlink; space stations such as the ISS; scientific satellites like the Hubble; Earth observation satellites from companies like Planet Labs, Umbra, and HawkEye 360; GPS; miniature CubeSats for education and research; and military/defense satellites.

Loading next visibility...
Identifier
59924, 2024-106C
Orbit
LEO
Country
Flag of USUS
Related business
Manufacturer
SpaceX/Seattle
Mission
Operational Commercial Communications
Bus & Motor
STARLINK V2M, Unknown motor
Mass
730 kg wet, ~700 kg dry
Launch date (UTC)
2024-06-01 (1 year ago)
Launch vehicle
FALCON 9
Launch site
Air Force Eastern Test Range (AFETR)
Object type
Payload
Rocket body
Debris
Shape & HBR
Box + 2 Pan, 17.7 m
Radar Cross Section
33.884 m², Large (>1 m²)

Expand to show TLE details & history
Last TLE update: 1 day ago

TLE from 1 day ago
0 STARLINK-31958
1 59924U 24106C   25287.37485626 -.00002776  00000-0 -91465-4 0  9990
2 59924  43.0047  64.3121 0001618 265.9644  94.1023 15.27554304 78312
Epoch: 2025-10-14T08:59Z
TLE epoch observation values (Epoch: 2025-10-14T08:59:47.580Z)
Latitude
-0.00002°
Longitude
-93.80036°
Altitude
482.982 km
Speed
7.626 km/s
True Right ascension
04h 17m 14s
True Declination
0° 00' 00"
Sunlit
Object was in full shadow at epoch
Visualization orbit readout
Latitude
Unknown
Longitude
Unknown
Altitude
Unknown
Speed
Unknown
Apparent Right ascension
Unknown
Apparent Declination
Unknown
Sunlit
N/A
Visualization observer readout
Local Sidereal Time
10:53:11
Azimuth
Unknown
Elevation
Unknown
Doppler factor
Unknown
Orbital elements
Apogee altitude
486.181 km
Perigee altitude
483.96 km
Semi-major axis
6,863.207 km
Eccentricity
0.00016
Inclination
43.0047°
RAAN
64.3121°
Arg. of periapsis
265.9644°
True anomaly
94.12079°
Mean anomaly
94.1023°
Eccentric anomaly
94.11155°
Mean motion
3.81727 °/min
Orbital period
94.31 mins
BSTAR
-0.000091465
Loading maneuver chart data...
Computing Atmospheric mass density...
Loading historical data...
Loading historical data...
Loading historical data...
Loading historical data...
Loading historical data...
Loading historical data...
Loading historical data...

Documentation

Showing up to 5 results
|